Location: Shepherdstown, WV
(39.4326°N, 77.8042°W)
Time: 16:00:28
(UTC-04:00)

Tiros 1 despin weight - Pass Details

Date: 03 August 2021
Orbit: 593 x 641 km, 48.2° (Epoch: 18 September)

Event Time Altitude Azimuth Distance (km) Brightness Sun altitude
Rises 17:18:58 0° 298° (WNW) 2,942 ? 33.6°
Reaches altitude 10° 17:21:31 10° 308° (NW) 2,033 ? 33.1°
Maximum altitude 17:25:43 32° 12° (NNE) 1,102 ? 32.3°
Drops below altitude 10° 17:29:55 10° 76° (ENE) 2,022 ? 31.5°
Sets 17:32:26 0° 86° (E) 2,925 ? 31.0°
